Time,TemperatureF,DewpointF,PressureIn,WindDirection,WindDirectionDegrees,WindSpeedMPH,WindSpeedGustMPH,Humidity,HourlyPrecipIn,Conditions,Clouds,dailyrainin,SoftwareType,DateUTC
2013-08-16 00:00:00,64.9,63.1,30.10,SSE,161,0.0,7.0,94,0.01,,---,0.00,VWS V14.01,2013-08-16 04:00:00,
2013-08-16 00:01:00,64.9,63.1,30.10,SSE,163,0.0,0.0,94,0.00,,---,0.00,VWS V14.01,2013-08-16 04:01:00,
2013-08-16 00:06:00,64.9,63.1,30.10,SSE,163,0.0,0.0,94,0.00,,---,0.00,VWS V14.01,2013-08-16 04:06:00,
2013-08-16 00:11:00,65.0,63.2,30.10,SSE,163,0.0,1.0,94,0.00,,---,0.00,VWS V14.01,2013-08-16 04:11:00,
2013-08-16 00:16:00,65.1,63.3,30.09,SE,146,0.0,5.0,94,0.00,,---,0.00,VWS V14.01,2013-08-16 04:16:00,
2013-08-16 00:21:00,65.2,63.1,30.09,SSE,147,0.0,5.0,93,0.00,,---,0.00,VWS V14.01,2013-08-16 04:21:00,
2013-08-16 00:26:00,65.2,63.1,30.09,SSE,147,0.0,5.0,93,0.00,,---,0.00,VWS V14.01,2013-08-16 04:26:00,
2013-08-16 00:30:00,65.2,63.1,30.09,SSE,149,0.0,5.0,93,0.00,,---,0.00,VWS V14.01,2013-08-16 04:30:00,
2013-08-16 00:31:00,65.2,63.1,30.09,SSE,160,1.0,1.0,93,0.00,,---,0.00,VWS V14.01,2013-08-16 04:31:00,
2013-08-16 00:36:00,65.2,63.1,30.09,South,184,0.0,1.0,93,0.00,,---,0.00,VWS V14.01,2013-08-16 04:36:00,
2013-08-16 00:41:00,65.2,63.1,30.09,SE,146,0.0,3.0,93,0.00,,---,0.00,VWS V14.01,2013-08-16 04:41:00,
2013-08-16 00:46:00,65.2,63.4,30.09,SSE,155,0.0,3.0,94,0.00,,---,0.00,VWS V14.01,2013-08-16 04:46:00,
2013-08-16 00:51:00,65.3,63.5,30.09,SSE,160,0.0,3.0,94,0.00,,---,0.00,VWS V14.01,2013-08-16 04:51:00,
2013-08-16 00:56:00,65.3,63.5,30.09,SSE,160,0.0,3.0,94,0.00,,---,0.00,VWS V14.01,2013-08-16 04:56:00,
2013-08-16 01:00:00,65.3,63.5,30.09,South,173,0.0,3.0,94,0.00,,---,0.00,VWS V14.01,2013-08-16 05:00:00,
2013-08-16 01:01:00,65.3,63.5,30.09,South,173,0.0,0.0,94,0.00,,---,0.00,VWS V14.01,2013-08-16 05:01:00,
2013-08-16 01:06:00,65.3,63.5,30.09,South,173,0.0,1.0,94,0.00,,---,0.00,VWS V14.01,2013-08-16 05:06:00,
2013-08-16 01:11:00,65.3,63.5,30.09,South,173,0.0,1.0,94,0.00,,---,0.00,VWS V14.01,2013-08-16 05:11:00,
2013-08-16 01:19:00,65.3,63.5,30.08,South,173,0.0,1.0,94,0.00,,---,0.00,VWS V14.01,2013-08-16 05:19:00,
2013-08-16 01:24:00,65.3,63.5,30.08,South,173,0.0,1.0,94,0.00,,---,0.00,VWS V14.01,2013-08-16 05:24:00,
2013-08-16 01:29:00,65.3,63.5,30.08,South,173,0.0,0.0,94,0.00,,---,0.00,VWS V14.01,2013-08-16 05:29:00,
2013-08-16 01:30:00,65.3,63.5,30.08,South,173,0.0,1.0,94,0.00,,---,0.00,VWS V14.01,2013-08-16 05:30:00,
2013-08-16 01:34:00,65.3,63.5,30.08,South,173,0.0,0.0,94,0.00,,---,0.00,VWS V14.01,2013-08-16 05:34:00,
2013-08-16 01:39:00,65.2,63.4,30.07,South,174,0.0,1.0,94,0.00,,---,0.00,VWS V14.01,2013-08-16 05:39:00,
2013-08-16 01:44:00,65.2,63.4,30.07,South,174,0.0,1.0,94,0.00,,---,0.00,VWS V14.01,2013-08-16 05:44:00,
2013-08-16 01:49:00,65.2,63.4,30.07,South,174,0.0,1.0,94,0.00,,---,0.00,VWS V14.01,2013-08-16 05:49:00,
2013-08-16 01:54:00,65.2,63.4,30.07,South,175,0.0,3.0,94,0.00,,---,0.00,VWS V14.01,2013-08-16 05:54:00,
2013-08-16 01:59:00,65.2,63.4,30.07,South,175,0.0,2.0,94,0.00,,---,0.00,VWS V14.01,2013-08-16 05:59:00,
2013-08-16 02:00:00,65.2,63.4,30.07,South,175,0.0,3.0,94,0.00,,---,0.00,VWS V14.01,2013-08-16 06:00:00,
2013-08-16 02:04:00,65.2,63.4,30.07,South,175,0.0,2.0,94,0.00,,---,0.00,VWS V14.01,2013-08-16 06:04:00,
2013-08-16 02:10:00,65.2,63.4,30.07,South,175,0.0,2.0,94,0.00,,---,0.00,VWS V14.01,2013-08-16 06:10:00,
2013-08-16 02:15:00,65.3,63.5,30.06,South,175,0.0,2.0,94,0.00,,---,0.00,VWS V14.01,2013-08-16 06:15:00,
2013-08-16 02:20:00,65.3,63.5,30.06,South,175,0.0,2.0,94,0.00,,---,0.00,VWS V14.01,2013-08-16 06:20:00,
2013-08-16 02:25:00,65.3,63.5,30.06,South,175,0.0,2.0,94,0.00,,---,0.00,VWS V14.01,2013-08-16 06:25:00,
2013-08-16 02:30:00,65.3,63.5,30.06,South,175,0.0,1.0,94,0.00,,---,0.00,VWS V14.01,2013-08-16 06:30:00,
2013-08-16 02:35:00,65.3,63.5,30.05,South,177,0.0,3.0,94,0.00,,---,0.00,VWS V14.01,2013-08-16 06:35:00,
2013-08-16 02:40:00,65.2,63.4,30.05,South,177,0.0,5.0,94,0.00,,---,0.00,VWS V14.01,2013-08-16 06:40:00,
2013-08-16 02:45:00,65.3,63.5,30.06,South,177,0.0,5.0,94,0.00,,---,0.00,VWS V14.01,2013-08-16 06:45:00,
2013-08-16 02:50:00,65.3,63.5,30.06,South,177,0.0,5.0,94,0.00,,---,0.00,VWS V14.01,2013-08-16 06:50:00,
2013-08-16 02:55:00,65.4,63.6,30.06,South,177,0.0,5.0,94,0.00,,---,0.00,VWS V14.01,2013-08-16 06:55:00,
2013-08-16 03:00:00,65.4,63.6,30.06,South,177,0.0,1.0,94,0.00,,---,0.00,VWS V14.01,2013-08-16 07:00:00,
2013-08-16 03:05:00,65.4,63.6,30.06,South,177,0.0,1.0,94,0.00,,---,0.00,VWS V14.01,2013-08-16 07:05:00,
2013-08-16 03:10:00,65.4,63.6,30.06,South,177,0.0,1.0,94,0.00,,---,0.00,VWS V14.01,2013-08-16 07:10:00,
2013-08-16 03:15:00,65.4,63.9,30.06,South,177,0.0,1.0,95,0.00,,---,0.00,VWS V14.01,2013-08-16 07:15:00,
2013-08-16 03:20:00,65.4,63.9,30.06,South,177,0.0,1.0,95,0.00,,---,0.00,VWS V14.01,2013-08-16 07:20:00,
2013-08-16 03:25:00,65.5,64.0,30.06,South,177,0.0,1.0,95,0.00,,---,0.00,VWS V14.01,2013-08-16 07:25:00,
2013-08-16 03:30:00,65.5,64.0,30.05,South,177,0.0,0.0,95,0.00,,---,0.00,VWS V14.01,2013-08-16 07:30:00,
2013-08-16 03:35:00,65.5,64.0,30.05,South,177,0.0,0.0,95,0.00,,---,0.00,VWS V14.01,2013-08-16 07:35:00,
2013-08-16 03:40:00,65.5,64.0,30.05,South,177,0.0,0.0,95,0.00,,---,0.00,VWS V14.01,2013-08-16 07:40:00,
2013-08-16 03:45:00,65.4,63.9,30.05,South,177,1.0,1.0,95,0.00,,---,0.00,VWS V14.01,2013-08-16 07:45:00,
2013-08-16 03:50:00,65.4,63.9,30.05,South,177,0.0,1.0,95,0.00,,---,0.00,VWS V14.01,2013-08-16 07:50:00,
2013-08-16 03:55:00,65.4,63.9,30.05,South,177,0.0,1.0,95,0.00,,---,0.00,VWS V14.01,2013-08-16 07:55:00,
2013-08-16 04:00:00,65.4,63.9,30.05,South,177,0.0,0.0,95,0.00,,---,0.00,VWS V14.01,2013-08-16 08:00:00,
2013-08-16 04:05:00,65.5,64.0,30.05,South,177,0.0,0.0,95,0.00,,---,0.00,VWS V14.01,2013-08-16 08:05:00,
2013-08-16 04:10:00,65.5,64.0,30.05,South,177,0.0,1.0,95,0.00,,---,0.00,VWS V14.01,2013-08-16 08:10:00,
2013-08-16 04:15:00,65.5,64.0,30.05,South,177,0.0,1.0,95,0.00,,---,0.00,VWS V14.01,2013-08-16 08:15:00,
2013-08-16 04:20:00,65.5,64.0,30.04,South,177,0.0,1.0,95,0.00,,---,0.00,VWS V14.01,2013-08-16 08:20:00,
2013-08-16 04:25:00,65.5,64.0,30.05,South,177,0.0,1.0,95,0.00,,---,0.00,VWS V14.01,2013-08-16 08:25:00,
2013-08-16 04:30:00,65.4,63.9,30.05,South,177,0.0,1.0,95,0.00,,---,0.00,VWS V14.01,2013-08-16 08:30:00,
2013-08-16 04:31:00,65.4,63.9,30.05,South,177,0.0,0.0,95,0.00,,---,0.00,VWS V14.01,2013-08-16 08:31:00,
2013-08-16 04:35:00,65.4,63.9,30.05,South,177,0.0,1.0,95,0.00,,---,0.00,VWS V14.01,2013-08-16 08:35:00,
2013-08-16 04:40:00,65.4,63.6,30.05,South,177,0.0,1.0,94,0.00,,---,0.00,VWS V14.01,2013-08-16 08:40:00,
2013-08-16 04:45:00,65.4,63.6,30.05,South,177,0.0,1.0,94,0.00,,---,0.00,VWS V14.01,2013-08-16 08:45:00,
2013-08-16 04:51:00,65.4,63.6,30.05,South,177,0.0,1.0,94,0.00,,---,0.00,VWS V14.01,2013-08-16 08:51:00,
2013-08-16 04:56:00,65.3,63.5,30.05,South,177,0.0,1.0,94,0.00,,---,0.00,VWS V14.01,2013-08-16 08:56:00,
2013-08-16 05:00:00,65.3,63.5,30.05,South,177,0.0,1.0,94,0.00,,---,0.00,VWS V14.01,2013-08-16 09:00:00,
2013-08-16 05:01:00,65.3,63.5,30.05,South,177,0.0,1.0,94,0.00,,---,0.00,VWS V14.01,2013-08-16 09:01:00,
2013-08-16 05:06:00,65.3,63.5,30.05,South,177,0.0,1.0,94,0.00,,---,0.00,VWS V14.01,2013-08-16 09:06:00,
2013-08-16 05:11:00,65.4,63.6,30.06,South,177,0.0,1.0,94,0.00,,---,0.00,VWS V14.01,2013-08-16 09:11:00,
2013-08-16 05:16:00,65.4,63.9,30.06,South,177,0.0,1.0,95,0.00,,---,0.00,VWS V14.01,2013-08-16 09:16:00,
2013-08-16 05:21:00,65.3,63.8,30.06,South,177,1.0,1.0,95,0.00,,---,0.00,VWS V14.01,2013-08-16 09:21:00,
2013-08-16 05:26:00,65.3,63.5,30.06,South,177,0.0,1.0,94,0.00,,---,0.00,VWS V14.01,2013-08-16 09:26:00,
2013-08-16 05:30:00,65.4,63.6,30.06,South,177,0.0,1.0,94,0.00,,---,0.00,VWS V14.01,2013-08-16 09:30:00,
2013-08-16 05:31:00,65.4,63.6,30.06,South,177,0.0,1.0,94,0.00,,---,0.00,VWS V14.01,2013-08-16 09:31:00,
2013-08-16 05:36:00,65.4,63.6,30.06,South,177,1.0,3.0,94,0.00,,---,0.00,VWS V14.01,2013-08-16 09:36:00,
2013-08-16 05:41:00,65.3,63.5,30.06,South,169,0.0,3.0,94,0.00,,---,0.00,VWS V14.01,2013-08-16 09:41:00,
2013-08-16 05:46:00,65.3,63.5,30.06,South,171,0.0,4.0,94,0.00,,---,0.00,VWS V14.01,2013-08-16 09:46:00,
2013-08-16 05:51:00,65.4,63.6,30.06,South,171,0.0,4.0,94,0.00,,---,0.00,VWS V14.01,2013-08-16 09:51:00,
2013-08-16 05:56:00,65.4,63.6,30.06,South,171,0.0,4.0,94,0.00,,---,0.00,VWS V14.01,2013-08-16 09:56:00,
2013-08-16 06:00:00,65.4,63.6,30.06,South,171,2.0,4.0,94,0.00,,---,0.00,VWS V14.01,2013-08-16 10:00:00,
2013-08-16 06:01:00,65.4,63.6,30.06,SSE,159,0.0,7.0,94,0.00,,---,0.00,VWS V14.01,2013-08-16 10:01:00,
2013-08-16 06:06:00,65.4,63.6,30.07,SSE,161,0.0,7.0,94,0.00,,---,0.00,VWS V14.01,2013-08-16 10:06:00,
2013-08-16 06:11:00,65.4,63.6,30.07,SSE,162,0.0,7.0,94,0.00,,---,0.00,VWS V14.01,2013-08-16 10:11:00,
2013-08-16 06:16:00,65.5,63.7,30.07,SSE,162,0.0,7.0,94,0.00,,---,0.00,VWS V14.01,2013-08-16 10:16:00,
2013-08-16 06:21:00,65.5,63.7,30.07,SSE,162,0.0,7.0,94,0.01,,---,0.01,VWS V14.01,2013-08-16 10:21:00,
2013-08-16 06:26:00,65.6,63.8,30.07,WSW,255,0.0,7.0,94,0.01,,---,0.01,VWS V14.01,2013-08-16 10:26:00,
2013-08-16 06:30:00,65.6,63.8,30.07,South,191,0.0,7.0,94,0.01,,---,0.01,VWS V14.01,2013-08-16 10:30:00,
2013-08-16 06:31:00,65.5,63.7,30.07,South,190,0.0,1.0,94,0.01,,---,0.01,VWS V14.01,2013-08-16 10:31:00,
2013-08-16 06:36:00,65.5,63.7,30.07,South,190,0.0,1.0,94,0.01,,---,0.01,VWS V14.01,2013-08-16 10:36:00,
2013-08-16 06:41:00,65.6,63.8,30.07,SE,140,0.0,1.0,94,0.01,,---,0.01,VWS V14.01,2013-08-16 10:41:00,
2013-08-16 06:46:00,65.6,63.8,30.07,SSE,157,0.0,1.0,94,0.01,,---,0.01,VWS V14.01,2013-08-16 10:46:00,
2013-08-16 06:51:00,65.6,63.8,30.07,South,177,0.0,4.0,94,0.01,,---,0.01,VWS V14.01,2013-08-16 10:51:00,
2013-08-16 06:56:00,65.6,63.8,30.07,South,177,1.0,4.0,94,0.01,,---,0.01,VWS V14.01,2013-08-16 10:56:00,
2013-08-16 07:00:00,65.6,63.8,30.07,South,177,1.0,4.0,94,0.01,,---,0.01,VWS V14.01,2013-08-16 11:00:00,
2013-08-16 07:01:00,65.6,63.8,30.07,South,177,1.0,1.0,94,0.01,,---,0.01,VWS V14.01,2013-08-16 11:01:00,
2013-08-16 07:06:00,65.6,63.8,30.08,South,177,1.0,1.0,94,0.01,,---,0.01,VWS V14.01,2013-08-16 11:06:00,
2013-08-16 07:11:00,65.6,63.8,30.08,South,177,1.0,1.0,94,0.01,,---,0.01,VWS V14.01,2013-08-16 11:11:00,
2013-08-16 07:16:00,65.6,63.8,30.08,South,177,1.0,1.0,94,0.01,,---,0.01,VWS V14.01,2013-08-16 11:16:00,
2013-08-16 07:21:00,66.0,64.2,30.08,South,175,1.0,1.0,94,0.01,,---,0.01,VWS V14.01,2013-08-16 11:21:00,
2013-08-16 07:26:00,66.0,64.2,30.08,South,175,0.0,1.0,94,0.01,,---,0.01,VWS V14.01,2013-08-16 11:26:00,
2013-08-16 07:30:00,66.0,64.2,30.08,South,175,0.0,2.0,94,0.01,,---,0.01,VWS V14.01,2013-08-16 11:30:00,
2013-08-16 07:31:00,66.1,64.3,30.08,South,175,0.0,0.0,94,0.00,,---,0.01,VWS V14.01,2013-08-16 11:31:00,
2013-08-16 07:36:00,66.2,64.4,30.08,South,175,0.0,2.0,94,0.00,,---,0.01,VWS V14.01,2013-08-16 11:36:00,
2013-08-16 07:41:00,66.3,64.5,30.08,SE,144,0.0,2.0,94,0.00,,---,0.01,VWS V14.01,2013-08-16 11:41:00,
2013-08-16 07:46:00,66.4,64.6,30.08,SE,144,0.0,2.0,94,0.00,,---,0.01,VWS V14.01,2013-08-16 11:46:00,
2013-08-16 07:51:00,66.5,64.7,30.08,SE,144,0.0,2.0,94,0.00,,---,0.01,VWS V14.01,2013-08-16 11:51:00,
2013-08-16 07:56:00,66.6,64.8,30.08,SE,145,0.0,2.0,94,0.00,,---,0.01,VWS V14.01,2013-08-16 11:56:00,
2013-08-16 08:00:00,66.7,64.9,30.08,SE,145,0.0,2.0,94,0.00,,---,0.01,VWS V14.01,2013-08-16 12:00:00,
2013-08-16 08:01:00,66.8,65.0,30.08,SE,145,0.0,1.0,94,0.00,,---,0.01,VWS V14.01,2013-08-16 12:01:00,
2013-08-16 08:06:00,67.1,65.3,30.09,South,171,0.0,4.0,94,0.00,,---,0.01,VWS V14.01,2013-08-16 12:06:00,
2013-08-16 08:11:00,67.2,65.1,30.09,SSE,150,3.0,5.0,93,0.00,,---,0.01,VWS V14.01,2013-08-16 12:11:00,
2013-08-16 08:16:00,67.2,65.1,30.09,South,175,0.0,6.0,93,0.00,,---,0.01,VWS V14.01,2013-08-16 12:16:00,
2013-08-16 08:22:00,67.5,65.4,30.09,SSE,160,0.0,7.0,93,0.00,,---,0.01,VWS V14.01,2013-08-16 12:22:00,
2013-08-16 08:27:00,67.6,65.5,30.08,South,175,0.0,7.0,93,0.00,,---,0.01,VWS V14.01,2013-08-16 12:27:00,
2013-08-16 08:30:00,67.8,65.7,30.08,SSE,163,0.0,7.0,93,0.00,,---,0.01,VWS V14.01,2013-08-16 12:30:00,
2013-08-16 08:32:00,68.0,65.9,30.09,South,172,0.0,5.0,93,0.00,,---,0.01,VWS V14.01,2013-08-16 12:32:00,
2013-08-16 08:37:00,68.1,65.7,30.09,South,187,5.0,5.0,92,0.00,,---,0.01,VWS V14.01,2013-08-16 12:37:00,
2013-08-16 08:42:00,68.3,65.6,30.08,South,175,0.0,7.0,91,0.00,,---,0.01,VWS V14.01,2013-08-16 12:42:00,
2013-08-16 08:47:00,68.5,65.8,30.09,SSE,152,2.0,7.0,91,0.00,,---,0.01,VWS V14.01,2013-08-16 12:47:00,
2013-08-16 08:52:00,68.9,66.2,30.09,SSE,153,6.0,7.0,91,0.00,,---,0.01,VWS V14.01,2013-08-16 12:52:00,
2013-08-16 08:57:00,68.9,65.8,30.09,SSW,192,0.0,7.0,90,0.00,,---,0.01,VWS V14.01,2013-08-16 12:57:00,
2013-08-16 09:00:00,69.0,65.9,30.09,South,171,0.0,7.0,90,0.00,,---,0.01,VWS V14.01,2013-08-16 13:00:00,
2013-08-16 09:02:00,69.0,65.9,30.09,SSE,163,0.0,6.0,90,0.00,,---,0.01,VWS V14.01,2013-08-16 13:02:00,
2013-08-16 09:07:00,69.0,65.9,30.09,SSW,194,5.0,6.0,90,0.00,,---,0.01,VWS V14.01,2013-08-16 13:07:00,
2013-08-16 09:12:00,69.1,66.4,30.09,SSE,152,0.0,6.0,91,0.00,,---,0.01,VWS V14.01,2013-08-16 13:12:00,
2013-08-16 09:17:00,69.2,66.5,30.09,SSE,163,0.0,6.0,91,0.00,,---,0.01,VWS V14.01,2013-08-16 13:17:00,
2013-08-16 09:22:00,69.2,66.2,30.09,SSE,164,0.0,7.0,90,0.00,,---,0.01,VWS V14.01,2013-08-16 13:22:00,
2013-08-16 09:27:00,69.2,66.5,30.09,South,185,0.0,8.0,91,0.00,,---,0.01,VWS V14.01,2013-08-16 13:27:00,
2013-08-16 09:30:00,69.4,66.7,30.09,South,185,0.0,8.0,91,0.00,,---,0.01,VWS V14.01,2013-08-16 13:30:00,
2013-08-16 09:32:00,69.5,66.8,30.09,South,170,0.0,1.0,91,0.00,,---,0.01,VWS V14.01,2013-08-16 13:32:00,
2013-08-16 09:37:00,69.6,66.5,30.08,SSE,157,5.0,6.0,90,0.00,,---,0.01,VWS V14.01,2013-08-16 13:37:00,
2013-08-16 09:42:00,69.7,66.6,30.09,SSE,153,0.0,7.0,90,0.00,,---,0.01,VWS V14.01,2013-08-16 13:42:00,
2013-08-16 09:47:00,69.8,66.4,30.09,South,174,0.0,9.0,89,0.00,,---,0.01,VWS V14.01,2013-08-16 13:47:00,
2013-08-16 09:52:00,69.9,66.8,30.09,South,180,0.0,9.0,90,0.00,,---,0.01,VWS V14.01,2013-08-16 13:52:00,
2013-08-16 09:57:00,69.9,66.5,30.09,SSE,157,0.0,9.0,89,0.00,,---,0.01,VWS V14.01,2013-08-16 13:57:00,
2013-08-16 10:00:00,69.9,66.5,30.09,South,173,1.0,9.0,89,0.00,,---,0.01,VWS V14.01,2013-08-16 14:00:00,
2013-08-16 10:02:00,69.9,66.8,30.10,SSE,156,0.0,3.0,90,0.00,,---,0.01,VWS V14.01,2013-08-16 14:02:00,
2013-08-16 10:07:00,70.1,67.0,30.10,SSE,159,0.0,3.0,90,0.00,,---,0.01,VWS V14.01,2013-08-16 14:07:00,
2013-08-16 10:12:00,70.3,66.9,30.10,South,185,0.0,5.0,89,0.00,,---,0.01,VWS V14.01,2013-08-16 14:12:00,
2013-08-16 10:17:00,70.3,66.9,30.10,SSE,159,0.0,7.0,89,0.00,,---,0.01,VWS V14.01,2013-08-16 14:17:00,
2013-08-16 10:22:00,70.3,66.9,30.10,South,188,0.0,7.0,89,0.00,,---,0.01,VWS V14.01,2013-08-16 14:22:00,
2013-08-16 10:27:00,70.3,66.9,30.10,SE,128,0.0,7.0,89,0.00,,---,0.01,VWS V14.01,2013-08-16 14:27:00,
2013-08-16 10:30:00,70.2,66.8,30.10,SSE,167,0.0,9.0,89,0.00,,---,0.01,VWS V14.01,2013-08-16 14:30:00,
2013-08-16 10:32:00,70.3,66.9,30.10,SSE,167,0.0,4.0,89,0.00,,---,0.01,VWS V14.01,2013-08-16 14:32:00,
2013-08-16 10:37:00,70.3,67.2,30.10,SE,136,0.0,7.0,90,0.00,,---,0.01,VWS V14.01,2013-08-16 14:37:00,
2013-08-16 10:42:00,70.4,67.0,30.10,SSW,197,4.0,7.0,89,0.00,,---,0.01,VWS V14.01,2013-08-16 14:42:00,
2013-08-16 10:47:00,70.4,67.3,30.10,SE,141,0.0,7.0,90,0.00,,---,0.01,VWS V14.01,2013-08-16 14:47:00,
2013-08-16 10:52:00,70.4,67.0,30.10,South,182,0.0,9.0,89,0.00,,---,0.01,VWS V14.01,2013-08-16 14:52:00,
2013-08-16 10:57:00,70.6,67.2,30.10,South,178,0.0,9.0,89,0.00,,---,0.01,VWS V14.01,2013-08-16 14:57:00,
2013-08-16 11:00:00,70.6,67.2,30.10,South,190,1.0,9.0,89,0.00,,---,0.01,VWS V14.01,2013-08-16 15:00:00,
2013-08-16 11:02:00,70.7,67.3,30.10,South,181,1.0,5.0,89,0.00,,---,0.01,VWS V14.01,2013-08-16 15:02:00,
2013-08-16 11:07:00,70.8,67.4,30.10,South,169,0.0,8.0,89,0.00,,---,0.01,VWS V14.01,2013-08-16 15:07:00,
2013-08-16 11:12:00,70.9,67.5,30.10,South,191,0.0,8.0,89,0.00,,---,0.01,VWS V14.01,2013-08-16 15:12:00,
2013-08-16 11:17:00,71.0,67.6,30.10,SE,141,4.0,8.0,89,0.00,,---,0.01,VWS V14.01,2013-08-16 15:17:00,
2013-08-16 11:22:00,71.0,67.6,30.10,South,187,5.0,8.0,89,0.00,,---,0.01,VWS V14.01,2013-08-16 15:22:00,
2013-08-16 11:27:00,70.9,67.5,30.09,SSW,200,0.0,11.0,89,0.00,,---,0.01,VWS V14.01,2013-08-16 15:27:00,
2013-08-16 11:30:00,70.9,67.5,30.10,SSE,164,1.0,11.0,89,0.00,,---,0.01,VWS V14.01,2013-08-16 15:30:00,
2013-08-16 11:32:00,71.0,67.6,30.10,SSE,167,0.0,3.0,89,0.00,,---,0.01,VWS V14.01,2013-08-16 15:32:00,
2013-08-16 11:37:00,71.0,67.6,30.09,SSE,156,4.0,7.0,89,0.00,,---,0.01,VWS V14.01,2013-08-16 15:37:00,
2013-08-16 11:42:00,70.8,67.4,30.09,SSE,159,0.0,8.0,89,0.00,,---,0.01,VWS V14.01,2013-08-16 15:42:00,
2013-08-16 11:47:00,70.7,67.6,30.09,SSE,153,0.0,8.0,90,0.00,,---,0.01,VWS V14.01,2013-08-16 15:47:00,
2013-08-16 11:52:00,70.6,67.5,30.09,SSE,165,0.0,8.0,90,0.00,,---,0.01,VWS V14.01,2013-08-16 15:52:00,
2013-08-16 11:57:00,70.4,67.3,30.10,South,183,2.0,8.0,90,0.00,,---,0.01,VWS V14.01,2013-08-16 15:57:00,
2013-08-16 12:00:00,70.4,67.7,30.10,South,184,0.0,8.0,91,0.00,,---,0.01,VWS V14.01,2013-08-16 16:00:00,
2013-08-16 12:02:00,70.1,67.4,30.09,South,190,0.0,10.0,91,0.02,,---,0.03,VWS V14.01,2013-08-16 16:02:00,
2013-08-16 12:07:00,69.8,67.4,30.09,SSE,168,0.0,10.0,92,0.04,,---,0.05,VWS V14.01,2013-08-16 16:07:00,
2013-08-16 12:12:00,69.4,67.0,30.09,SSE,153,5.0,10.0,92,0.07,,---,0.08,VWS V14.01,2013-08-16 16:12:00,
2013-08-16 12:17:00,69.2,67.1,30.08,South,175,0.0,10.0,93,0.09,,---,0.10,VWS V14.01,2013-08-16 16:17:00,
2013-08-16 12:22:00,69.1,67.0,30.08,SSE,158,0.0,10.0,93,0.12,,---,0.13,VWS V14.01,2013-08-16 16:22:00,
2013-08-16 12:27:00,69.0,67.2,30.09,South,185,0.0,10.0,94,0.14,,---,0.15,VWS V14.01,2013-08-16 16:27:00,
2013-08-16 12:30:00,69.1,67.3,30.09,South,184,0.0,10.0,94,0.14,,---,0.15,VWS V14.01,2013-08-16 16:30:00,
2013-08-16 12:32:00,69.1,67.3,30.08,South,178,0.0,5.0,94,0.16,,---,0.17,VWS V14.01,2013-08-16 16:32:00,
2013-08-16 12:37:00,69.1,67.3,30.08,South,182,0.0,5.0,94,0.18,,---,0.19,VWS V14.01,2013-08-16 16:37:00,
2013-08-16 12:43:00,69.0,67.2,30.08,South,190,0.0,6.0,94,0.20,,---,0.21,VWS V14.01,2013-08-16 16:43:00,
2013-08-16 12:48:00,69.2,67.4,30.08,SW,225,0.0,6.0,94,0.22,,---,0.23,VWS V14.01,2013-08-16 16:48:00,
2013-08-16 12:53:00,69.2,67.4,30.08,ESE,119,0.0,7.0,94,0.23,,---,0.24,VWS V14.01,2013-08-16 16:53:00,
2013-08-16 12:58:00,69.1,67.3,30.08,South,173,0.0,7.0,94,0.25,,---,0.26,VWS V14.01,2013-08-16 16:58:00,
2013-08-16 13:00:00,69.1,67.3,30.08,South,173,0.0,7.0,94,0.25,,---,0.26,VWS V14.01,2013-08-16 17:00:00,
2013-08-16 13:03:00,69.1,67.3,30.08,SSE,167,0.0,7.0,94,0.26,,---,0.27,VWS V14.01,2013-08-16 17:03:00,
2013-08-16 13:08:00,69.1,67.3,30.08,South,189,3.0,9.0,94,0.28,,---,0.29,VWS V14.01,2013-08-16 17:08:00,
2013-08-16 13:13:00,69.1,67.3,30.08,SSE,147,0.0,9.0,94,0.29,,---,0.30,VWS V14.01,2013-08-16 17:13:00,
2013-08-16 13:18:00,69.3,67.5,30.08,SSE,167,0.0,9.0,94,0.30,,---,0.31,VWS V14.01,2013-08-16 17:18:00,
2013-08-16 13:23:00,69.3,67.5,30.08,South,171,0.0,9.0,94,0.31,,---,0.32,VWS V14.01,2013-08-16 17:23:00,
2013-08-16 13:28:00,69.3,67.5,30.08,South,173,0.0,9.0,94,0.32,,---,0.33,VWS V14.01,2013-08-16 17:28:00,
2013-08-16 13:30:00,69.3,67.5,30.08,South,173,0.0,9.0,94,0.33,,---,0.34,VWS V14.01,2013-08-16 17:30:00,
2013-08-16 13:33:00,69.2,67.4,30.08,South,169,0.0,7.0,94,0.19,,---,0.34,VWS V14.01,2013-08-16 17:33:00,
2013-08-16 13:38:00,69.2,67.4,30.07,SSE,164,0.0,8.0,94,0.20,,---,0.35,VWS V14.01,2013-08-16 17:38:00,
2013-08-16 13:43:00,69.2,67.4,30.07,SE,125,5.0,8.0,94,0.21,,---,0.36,VWS V14.01,2013-08-16 17:43:00,
2013-08-16 13:48:00,69.2,67.4,30.07,SSE,159,0.0,10.0,94,0.22,,---,0.37,VWS V14.01,2013-08-16 17:48:00,
2013-08-16 13:53:00,69.2,67.4,30.07,South,188,3.0,10.0,94,0.23,,---,0.38,VWS V14.01,2013-08-16 17:53:00,
2013-08-16 13:58:00,69.2,67.4,30.08,SE,134,0.0,10.0,94,0.23,,---,0.38,VWS V14.01,2013-08-16 17:58:00,
2013-08-16 14:00:00,69.2,67.4,30.08,SE,142,0.0,10.0,94,0.24,,---,0.39,VWS V14.01,2013-08-16 18:00:00,
2013-08-16 14:03:00,69.1,67.3,30.07,South,173,0.0,7.0,94,0.13,,---,0.39,VWS V14.01,2013-08-16 18:03:00,
2013-08-16 14:08:00,69.0,67.2,30.07,SSE,155,0.0,13.0,94,0.14,,---,0.40,VWS V14.01,2013-08-16 18:08:00,
2013-08-16 14:13:00,69.0,67.2,30.06,SSE,167,2.0,13.0,94,0.14,,---,0.40,VWS V14.01,2013-08-16 18:13:00,
2013-08-16 14:18:00,69.0,67.2,30.06,SSE,147,0.0,13.0,94,0.15,,---,0.41,VWS V14.01,2013-08-16 18:18:00,
2013-08-16 14:23:00,69.0,67.2,30.06,South,177,4.0,13.0,94,0.16,,---,0.42,VWS V14.01,2013-08-16 18:23:00,
2013-08-16 14:28:00,69.0,67.2,30.06,South,171,0.0,13.0,94,0.16,,---,0.42,VWS V14.01,2013-08-16 18:28:00,
2013-08-16 14:30:00,69.0,67.2,30.06,South,178,0.0,13.0,94,0.16,,---,0.42,VWS V14.01,2013-08-16 18:30:00,
2013-08-16 14:33:00,69.0,67.2,30.06,South,185,0.0,5.0,94,0.09,,---,0.43,VWS V14.01,2013-08-16 18:33:00,
2013-08-16 14:38:00,69.0,67.2,30.06,SSE,155,0.0,9.0,94,0.09,,---,0.43,VWS V14.01,2013-08-16 18:38:00,
2013-08-16 14:43:00,69.0,67.2,30.06,South,175,1.0,9.0,94,0.10,,---,0.44,VWS V14.01,2013-08-16 18:43:00,
2013-08-16 14:49:00,69.0,67.2,30.06,SSE,159,0.0,9.0,94,0.10,,---,0.44,VWS V14.01,2013-08-16 18:49:00,
2013-08-16 14:54:00,69.0,67.2,30.05,SSE,163,0.0,9.0,94,0.11,,---,0.45,VWS V14.01,2013-08-16 18:54:00,
2013-08-16 14:59:00,68.9,67.1,30.06,SSE,162,4.0,9.0,94,0.12,,---,0.46,VWS V14.01,2013-08-16 18:59:00,
2013-08-16 15:00:00,69.0,67.2,30.06,SSE,165,2.0,9.0,94,0.12,,---,0.46,VWS V14.01,2013-08-16 19:00:00,
2013-08-16 15:04:00,69.0,67.5,30.07,ENE,61,0.0,5.0,95,0.07,,---,0.46,VWS V14.01,2013-08-16 19:04:00,
2013-08-16 15:09:00,69.0,67.2,30.09,ENE,69,2.0,12.0,94,0.08,,---,0.47,VWS V14.01,2013-08-16 19:09:00,
2013-08-16 15:14:00,68.8,67.3,30.09,East,79,9.0,14.0,95,0.09,,---,0.48,VWS V14.01,2013-08-16 19:14:00,
2013-08-16 15:19:00,68.5,66.7,30.06,SE,144,7.0,14.0,94,0.10,,---,0.49,VWS V14.01,2013-08-16 19:19:00,
2013-08-16 15:24:00,68.4,66.9,30.07,WSW,252,0.0,14.0,95,0.11,,---,0.50,VWS V14.01,2013-08-16 19:24:00,
2013-08-16 15:29:00,68.4,66.9,30.08,SSE,157,0.0,14.0,95,0.12,,---,0.51,VWS V14.01,2013-08-16 19:29:00,
2013-08-16 15:30:00,68.4,66.9,30.08,SSE,157,0.0,14.0,95,0.12,,---,0.51,VWS V14.01,2013-08-16 19:30:00,
2013-08-16 15:34:00,68.4,66.9,30.08,South,173,3.0,10.0,95,0.11,,---,0.53,VWS V14.01,2013-08-16 19:34:00,
2013-08-16 15:39:00,68.4,66.9,30.07,SSW,192,1.0,10.0,95,0.12,,---,0.54,VWS V14.01,2013-08-16 19:39:00,
2013-08-16 15:44:00,68.4,66.9,30.06,South,178,7.0,15.0,95,0.13,,---,0.55,VWS V14.01,2013-08-16 19:44:00,
2013-08-16 15:49:00,68.4,66.9,30.07,South,178,3.0,15.0,95,0.15,,---,0.57,VWS V14.01,2013-08-16 19:49:00,
2013-08-16 15:54:00,68.4,66.9,30.06,South,181,6.0,15.0,95,0.16,,---,0.58,VWS V14.01,2013-08-16 19:54:00,
2013-08-16 15:59:00,68.5,67.0,30.06,SSE,155,1.0,15.0,95,0.18,,---,0.60,VWS V14.01,2013-08-16 19:59:00,
2013-08-16 16:00:00,68.5,67.0,30.06,SSE,155,1.0,15.0,95,0.18,,---,0.60,VWS V14.01,2013-08-16 20:00:00,
2013-08-16 16:04:00,68.6,67.1,30.06,South,169,2.0,8.0,95,0.15,,---,0.61,VWS V14.01,2013-08-16 20:04:00,
2013-08-16 16:09:00,69.0,67.5,30.06,ESE,123,2.0,8.0,95,0.16,,---,0.62,VWS V14.01,2013-08-16 20:09:00,
2013-08-16 16:14:00,69.1,67.6,30.06,South,186,5.0,9.0,95,0.18,,---,0.64,VWS V14.01,2013-08-16 20:14:00,
2013-08-16 16:19:00,69.2,67.7,30.06,SSE,153,1.0,9.0,95,0.19,,---,0.65,VWS V14.01,2013-08-16 20:19:00,
2013-08-16 16:24:00,69.2,67.7,30.06,SSE,168,1.0,9.0,95,0.20,,---,0.66,VWS V14.01,2013-08-16 20:24:00,
2013-08-16 16:29:00,69.2,67.7,30.06,South,171,4.0,7.0,95,0.17,,---,0.68,VWS V14.01,2013-08-16 20:29:00,
2013-08-16 16:30:00,69.3,67.8,30.06,SSE,150,7.0,9.0,95,0.22,,---,0.68,VWS V14.01,2013-08-16 20:30:00,
2013-08-16 16:34:00,69.2,67.7,30.06,SSE,165,0.0,7.0,95,0.18,,---,0.69,VWS V14.01,2013-08-16 20:34:00,
2013-08-16 16:39:00,69.2,67.7,30.06,SSE,156,5.0,9.0,95,0.19,,---,0.70,VWS V14.01,2013-08-16 20:39:00,
2013-08-16 16:44:00,69.3,67.8,30.06,SSW,197,4.0,11.0,95,0.21,,---,0.72,VWS V14.01,2013-08-16 20:44:00,
2013-08-16 16:49:00,69.4,67.6,30.06,South,170,0.0,11.0,94,0.22,,---,0.73,VWS V14.01,2013-08-16 20:49:00,
2013-08-16 16:54:00,69.3,67.5,30.06,SSE,163,6.0,11.0,94,0.23,,---,0.74,VWS V14.01,2013-08-16 20:54:00,
2013-08-16 16:59:00,69.4,67.6,30.06,SSE,156,0.0,1.0,94,0.15,,---,0.75,VWS V14.01,2013-08-16 20:59:00,
2013-08-16 17:00:00,69.4,67.6,30.06,South,171,0.0,11.0,94,0.24,,---,0.75,VWS V14.01,2013-08-16 21:00:00,
2013-08-16 17:04:00,69.6,67.8,30.06,SSE,157,0.0,2.0,94,0.17,,---,0.77,VWS V14.01,2013-08-16 21:04:00,
2013-08-16 17:09:00,69.7,67.9,30.06,South,190,0.0,7.0,94,0.18,,---,0.78,VWS V14.01,2013-08-16 21:09:00,
2013-08-16 17:14:00,69.7,67.9,30.06,SE,135,0.0,9.0,94,0.20,,---,0.80,VWS V14.01,2013-08-16 21:14:00,
2013-08-16 17:19:00,69.7,67.9,30.06,South,189,4.0,9.0,94,0.21,,---,0.81,VWS V14.01,2013-08-16 21:19:00,
2013-08-16 17:24:00,69.7,67.9,30.06,South,188,1.0,9.0,94,0.22,,---,0.82,VWS V14.01,2013-08-16 21:24:00,
2013-08-16 17:29:00,69.6,67.5,30.06,SSW,192,0.0,6.0,93,0.16,,---,0.84,VWS V14.01,2013-08-16 21:29:00,
2013-08-16 17:30:00,69.6,67.5,30.06,South,174,4.0,9.0,93,0.24,,---,0.84,VWS V14.01,2013-08-16 21:30:00,
2013-08-16 17:34:00,69.6,67.5,30.06,SSE,166,2.0,7.0,93,0.17,,---,0.85,VWS V14.01,2013-08-16 21:34:00,
2013-08-16 17:39:00,69.5,67.4,30.06,South,176,0.0,7.0,93,0.18,,---,0.86,VWS V14.01,2013-08-16 21:39:00,
2013-08-16 17:44:00,69.6,67.5,30.06,South,182,0.0,7.0,93,0.20,,---,0.88,VWS V14.01,2013-08-16 21:44:00,
2013-08-16 17:49:00,69.6,67.5,30.06,South,180,3.0,7.0,93,0.21,,---,0.89,VWS V14.01,2013-08-16 21:49:00,
2013-08-16 17:54:00,69.6,67.5,30.07,SSE,164,0.0,7.0,93,0.22,,---,0.90,VWS V14.01,2013-08-16 21:54:00,
2013-08-16 17:59:00,69.5,67.4,30.07,South,171,0.0,4.0,93,0.16,,---,0.91,VWS V14.01,2013-08-16 21:59:00,
2013-08-16 18:00:00,69.5,67.4,30.07,South,171,4.0,7.0,93,0.23,,---,0.91,VWS V14.01,2013-08-16 22:00:00,
2013-08-16 18:04:00,69.5,67.4,30.07,South,184,0.0,4.0,93,0.18,,---,0.93,VWS V14.01,2013-08-16 22:04:00,
2013-08-16 18:09:00,69.5,67.4,30.06,South,177,0.0,8.0,93,0.19,,---,0.94,VWS V14.01,2013-08-16 22:09:00,
2013-08-16 18:14:00,69.5,67.4,30.06,South,171,0.0,8.0,93,0.20,,---,0.95,VWS V14.01,2013-08-16 22:14:00,
2013-08-16 18:19:00,69.6,67.5,30.06,South,187,0.0,8.0,93,0.21,,---,0.96,VWS V14.01,2013-08-16 22:19:00,
2013-08-16 18:24:00,69.6,67.5,30.06,SSE,160,0.0,8.0,93,0.22,,---,0.97,VWS V14.01,2013-08-16 22:24:00,
2013-08-16 18:29:00,69.5,67.4,30.06,South,170,0.0,1.0,93,0.14,,---,0.98,VWS V14.01,2013-08-16 22:29:00,
2013-08-16 18:30:00,69.5,67.4,30.06,South,175,0.0,8.0,93,0.23,,---,0.98,VWS V14.01,2013-08-16 22:30:00,
2013-08-16 18:34:00,69.5,67.4,30.06,South,183,0.0,7.0,93,0.15,,---,0.99,VWS V14.01,2013-08-16 22:34:00,
2013-08-16 18:40:00,69.5,67.4,30.06,SSE,167,1.0,8.0,93,0.16,,---,1.00,VWS V14.01,2013-08-16 22:40:00,
2013-08-16 18:45:00,69.5,67.4,30.06,South,184,0.0,8.0,93,0.17,,---,1.01,VWS V14.01,2013-08-16 22:45:00,
2013-08-16 18:50:00,69.5,67.4,30.06,SSE,157,0.0,8.0,93,0.18,,---,1.02,VWS V14.01,2013-08-16 22:50:00,
2013-08-16 18:55:00,69.5,67.4,30.06,SSE,153,5.0,8.0,93,0.19,,---,1.03,VWS V14.01,2013-08-16 22:55:00,
2013-08-16 19:00:00,69.5,67.4,30.06,SSE,162,0.0,3.0,93,0.13,,---,1.04,VWS V14.01,2013-08-16 23:00:00,
2013-08-16 19:05:00,69.5,67.4,30.06,SSE,153,0.0,3.0,93,0.13,,---,1.04,VWS V14.01,2013-08-16 23:05:00,
2013-08-16 19:10:00,69.5,67.4,30.06,SSE,150,0.0,3.0,93,0.14,,---,1.05,VWS V14.01,2013-08-16 23:10:00,
2013-08-16 19:15:00,69.5,67.4,30.07,SSE,150,0.0,3.0,93,0.15,,---,1.06,VWS V14.01,2013-08-16 23:15:00,
2013-08-16 19:20:00,69.5,67.4,30.07,SSE,158,0.0,3.0,93,0.16,,---,1.07,VWS V14.01,2013-08-16 23:20:00,
2013-08-16 19:25:00,69.5,67.4,30.07,SSE,158,0.0,3.0,93,0.17,,---,1.08,VWS V14.01,2013-08-16 23:25:00,
2013-08-16 19:30:00,69.5,67.4,30.07,SE,140,0.0,2.0,93,0.10,,---,1.08,VWS V14.01,2013-08-16 23:30:00,
2013-08-16 19:35:00,69.4,67.3,30.07,South,183,0.0,3.0,93,0.11,,---,1.09,VWS V14.01,2013-08-16 23:35:00,
2013-08-16 19:40:00,69.4,67.3,30.08,SSE,163,0.0,3.0,93,0.12,,---,1.10,VWS V14.01,2013-08-16 23:40:00,
2013-08-16 19:45:00,69.4,67.6,30.08,SSE,163,0.0,3.0,94,0.13,,---,1.11,VWS V14.01,2013-08-16 23:45:00,
2013-08-16 19:50:00,69.4,67.6,30.07,SSE,159,3.0,3.0,94,0.13,,---,1.11,VWS V14.01,2013-08-16 23:50:00,
2013-08-16 19:55:00,69.3,67.2,30.07,SSE,153,0.0,3.0,93,0.14,,---,1.12,VWS V14.01,2013-08-16 23:55:00,
2013-08-16 20:00:00,69.2,67.4,30.07,SSE,153,0.0,0.0,94,0.09,,---,1.12,VWS V14.01,2013-08-17 00:00:00,
2013-08-16 20:05:00,69.2,67.4,30.07,SSE,161,0.0,0.0,94,0.10,,---,1.13,VWS V14.01,2013-08-17 00:05:00,
2013-08-16 20:10:00,69.0,67.2,30.07,SSE,149,0.0,4.0,94,0.11,,---,1.14,VWS V14.01,2013-08-17 00:10:00,
2013-08-16 20:15:00,69.0,67.2,30.07,ESE,105,0.0,4.0,94,0.11,,---,1.14,VWS V14.01,2013-08-17 00:15:00,
2013-08-16 20:20:00,68.9,67.1,30.07,SSE,150,0.0,6.0,94,0.12,,---,1.15,VWS V14.01,2013-08-17 00:20:00,
2013-08-16 20:25:00,68.9,67.1,30.07,SSE,148,5.0,6.0,94,0.13,,---,1.16,VWS V14.01,2013-08-17 00:25:00,
2013-08-16 20:30:00,68.8,67.0,30.07,SSE,151,2.0,2.0,94,0.08,,---,1.16,VWS V14.01,2013-08-17 00:30:00,
2013-08-16 20:35:00,68.7,66.9,30.08,SE,138,0.0,8.0,94,0.09,,---,1.17,VWS V14.01,2013-08-17 00:35:00,
2013-08-16 20:40:00,68.7,66.9,30.08,SSE,151,0.0,8.0,94,0.09,,---,1.17,VWS V14.01,2013-08-17 00:40:00,
2013-08-16 20:45:00,68.7,66.9,30.08,South,172,0.0,8.0,94,0.10,,---,1.18,VWS V14.01,2013-08-17 00:45:00,
2013-08-16 20:50:00,68.7,66.9,30.08,SSE,163,0.0,8.0,94,0.10,,---,1.18,VWS V14.01,2013-08-17 00:50:00,
2013-08-16 20:55:00,68.6,66.8,30.08,SE,142,0.0,8.0,94,0.10,,---,1.18,VWS V14.01,2013-08-17 00:55:00,
2013-08-16 21:00:00,68.6,66.8,30.08,SE,146,0.0,6.0,94,0.07,,---,1.19,VWS V14.01,2013-08-17 01:00:00,
2013-08-16 21:05:00,68.6,66.8,30.08,SE,143,0.0,6.0,94,0.07,,---,1.19,VWS V14.01,2013-08-17 01:05:00,
2013-08-16 21:10:00,68.6,66.8,30.09,SSE,147,0.0,6.0,94,0.08,,---,1.20,VWS V14.01,2013-08-17 01:10:00,
2013-08-16 21:15:00,68.6,66.8,30.09,SE,145,3.0,6.0,94,0.08,,---,1.20,VWS V14.01,2013-08-17 01:15:00,
2013-08-16 21:20:00,68.6,66.8,30.09,SE,135,0.0,6.0,94,0.08,,---,1.20,VWS V14.01,2013-08-17 01:20:00,
2013-08-16 21:25:00,68.6,66.8,30.10,SE,138,0.0,6.0,94,0.09,,---,1.21,VWS V14.01,2013-08-17 01:25:00,
2013-08-16 21:30:00,68.6,66.8,30.10,SE,142,0.0,6.0,94,0.05,,---,1.21,VWS V14.01,2013-08-17 01:30:00,
2013-08-16 21:35:00,68.6,66.8,30.10,SE,140,0.0,6.0,94,0.06,,---,1.22,VWS V14.01,2013-08-17 01:35:00,
2013-08-16 21:40:00,68.6,66.8,30.10,South,171,0.0,6.0,94,0.06,,---,1.22,VWS V14.01,2013-08-17 01:40:00,
2013-08-16 21:45:00,68.6,66.8,30.10,SSE,155,0.0,9.0,94,0.06,,---,1.22,VWS V14.01,2013-08-17 01:45:00,
2013-08-16 21:50:00,68.6,66.8,30.10,SSE,155,0.0,9.0,94,0.06,,---,1.22,VWS V14.01,2013-08-17 01:50:00,
2013-08-16 21:55:00,68.6,66.8,30.10,South,177,0.0,9.0,94,0.07,,---,1.23,VWS V14.01,2013-08-17 01:55:00,
2013-08-16 22:00:00,68.6,66.8,30.10,South,169,0.0,0.0,94,0.04,,---,1.23,VWS V14.01,2013-08-17 02:00:00,
2013-08-16 22:06:00,68.6,66.8,30.10,SSE,161,0.0,4.0,94,0.04,,---,1.23,VWS V14.01,2013-08-17 02:06:00,
2013-08-16 22:11:00,68.6,66.8,30.11,SE,135,0.0,8.0,94,0.05,,---,1.24,VWS V14.01,2013-08-17 02:11:00,
2013-08-16 22:15:00,68.6,66.8,30.11,SSE,148,0.0,8.0,94,0.05,,---,1.24,VWS V14.01,2013-08-17 02:15:00,
2013-08-16 22:20:00,68.6,66.8,30.11,South,184,0.0,8.0,94,0.05,,---,1.24,VWS V14.01,2013-08-17 02:20:00,
2013-08-16 22:25:00,68.6,66.8,30.11,SSE,149,0.0,8.0,94,0.05,,---,1.24,VWS V14.01,2013-08-17 02:25:00,
2013-08-16 22:30:00,68.6,66.8,30.11,SSE,163,0.0,8.0,94,0.05,,---,1.24,VWS V14.01,2013-08-17 02:30:00,
2013-08-16 22:31:00,68.6,66.8,30.11,SSE,161,0.0,0.0,94,0.03,,---,1.24,VWS V14.01,2013-08-17 02:31:00,
2013-08-16 22:36:00,68.6,66.8,30.11,SE,143,3.0,5.0,94,0.04,,---,1.25,VWS V14.01,2013-08-17 02:36:00,
2013-08-16 22:41:00,68.6,66.8,30.11,SE,130,0.0,5.0,94,0.04,,---,1.25,VWS V14.01,2013-08-17 02:41:00,
2013-08-16 22:46:00,68.6,66.8,30.10,SSE,167,0.0,5.0,94,0.04,,---,1.25,VWS V14.01,2013-08-17 02:46:00,
2013-08-16 22:51:00,68.6,66.8,30.10,SSE,150,0.0,5.0,94,0.04,,---,1.25,VWS V14.01,2013-08-17 02:51:00,
2013-08-16 22:56:00,68.6,66.8,30.10,SE,143,0.0,5.0,94,0.05,,---,1.26,VWS V14.01,2013-08-17 02:56:00,
2013-08-16 23:00:00,68.6,66.8,30.10,SE,135,0.0,5.0,94,0.05,,---,1.26,VWS V14.01,2013-08-17 03:00:00,
2013-08-16 23:01:00,68.6,66.8,30.10,SSE,151,0.0,1.0,94,0.03,,---,1.26,VWS V14.01,2013-08-17 03:01:00,
2013-08-16 23:06:00,68.6,66.8,30.10,SSE,155,0.0,5.0,94,0.03,,---,1.26,VWS V14.01,2013-08-17 03:06:00,
2013-08-16 23:11:00,68.5,66.7,30.09,SSW,195,5.0,7.0,94,0.03,,---,1.26,VWS V14.01,2013-08-17 03:11:00,
2013-08-16 23:16:00,68.5,66.7,30.10,South,175,0.0,7.0,94,0.03,,---,1.26,VWS V14.01,2013-08-17 03:16:00,
2013-08-16 23:21:00,68.5,66.7,30.10,South,178,1.0,7.0,94,0.03,,---,1.26,VWS V14.01,2013-08-17 03:21:00,
2013-08-16 23:26:00,68.5,66.7,30.10,SSE,168,0.0,7.0,94,0.03,,---,1.26,VWS V14.01,2013-08-17 03:26:00,
2013-08-16 23:30:00,68.5,66.7,30.10,SSE,168,0.0,7.0,94,0.03,,---,1.26,VWS V14.01,2013-08-17 03:30:00,
2013-08-16 23:31:00,68.5,66.7,30.10,South,169,0.0,8.0,94,0.02,,---,1.26,VWS V14.01,2013-08-17 03:31:00,
2013-08-16 23:36:00,68.5,66.7,30.10,SE,142,0.0,8.0,94,0.02,,---,1.26,VWS V14.01,2013-08-17 03:36:00,
2013-08-16 23:41:00,68.5,66.7,30.10,SSE,150,0.0,8.0,94,0.02,,---,1.26,VWS V14.01,2013-08-17 03:41:00,
2013-08-16 23:46:00,68.5,66.7,30.10,SSE,152,0.0,8.0,94,0.02,,---,1.26,VWS V14.01,2013-08-17 03:46:00,
2013-08-16 23:51:00,68.5,66.7,30.10,SSE,152,2.0,8.0,94,0.02,,---,1.26,VWS V14.01,2013-08-17 03:51:00,
2013-08-16 23:56:00,68.6,66.8,30.10,SSE,165,0.0,8.0,94,0.02,,---,1.26,VWS V14.01,2013-08-17 03:56:00,